Regional Weather Roundup
Issued by NWS

Home | Current Version | Previous Version | Graphics & Text | Print | Product List | Glossary On
Versions: 1 2 3 4 5 6 7 8 9 10 11 12 13 14 15 16 17 18 19 20 21 22 23 24 25 26 27 28 29 30 31 32 33 34 35 36 37 38 39 40 41 42 43 44 45 46 47
000
ASUS43 KDMX 250107
RWRIA

WEATHER ROUNDUP FOR IOWA
NATIONAL WEATHER SERVICE DES MOINES IA
700 PM CST WED DEC 24 2014

NOTE: "FAIR" INDICATES FEW OR NO CLOUDS BELOW 12,000 FEET WITH NO
SIGNIFICANT WEATHER AND/OR OBSTRUCTIONS TO VISIBILITY.

* - THESE STATIONS ARE NOT NWS STATIONS...THUS NOT UNDER NWS
QUALITY CONTROL.  THEY ALSO DO NOT REPORT WEATHER SUCH
AS PRECIPITATION OR FOG.

IAZ001>003-012>014-020>022-031>034-043>046-250200-
   NORTHWEST IOWA

CITY           SKY/WX    TMP DP  RH WIND       PRES   REMARKS
CARROLL *      CLOUDY    28  28 100 SW13      29.73R FOG     WCI  18
CHEROKEE *     CLOUDY    27  27 100 SW9       29.70S WCI  17
DENISON *      CLOUDY    28  28 100 SW9       29.71S WCI  20
LE MARS *      CLOUDY    28  27  93 SW9       29.69F WCI  20
ORANGE CITY *  CLOUDY    27  25  93 SW9       29.66F WCI  17
SHELDON *      CLOUDY    27  27 100 SW13      29.65  WCI  16
SIOUX CITY     CLOUDY    29  26  89 S7        29.71F WCI  22
SPENCER        CLOUDY    27  25  92 W10       29.67S WCI  17
STORM LAKE *   FOG       27  27 100 SW10G17   29.70R VSB 1/2 WCI  17
$$

IAZ055>058-069>071-079>083-090>094-250200-
   SOUTHWEST IOWA

CITY           SKY/WX    TMP DP  RH WIND       PRES   REMARKS
ATLANTIC *     CLOUDY    30  28  93 W12       29.75S FOG     WCI  21
AUDUBON *      CLOUDY    28  25  86 W10       29.74S FOG     WCI  19
CLARINDA *     CLOUDY    32  30  93 W9        29.80F WCI  24
COUNCIL BLFS * CLOUDY    28  28 100 SW8       29.74F WCI  20
CRESTON *      CLOUDY    30  30 100 W15       29.75F FOG     WCI  19
HARLAN  *      CLOUDY    28  28 100 SW10      29.77F WCI  19
LAMONI         CLOUDY    32  29  88 W16       29.77R WCI  21
RED OAK *      CLOUDY    30  28  93 SW13      29.78S WCI  20
SHENANDOAH *   CLOUDY    32  28  86 SW10G18   29.80S WCI  24
$$

IAZ047>049-059>061-072>074-084-250200-
   CENTRAL IOWA

CITY           SKY/WX    TMP DP  RH WIND       PRES   REMARKS
AMES           CLOUDY    32  27  81 W15       29.73R WCI  22
ANKENY *       MIX PCPN  32  30  93 W13       29.74R WCI  22
CHARITON *     CLOUDY    34  30  86 W14       29.75R WCI  24
DES MOINES     CLOUDY    33  29  85 W10       29.75R WCI  25
GRINNELL*      CLOUDY    34  30  86 W10       29.71S WCI  26
KNOXVILLE *    CLOUDY    34  28  80 W14       29.73R WCI  24
MARSHALLTOWN   CLOUDY    33  29  85 W12       29.70R WCI  24
PELLA *        CLOUDY    34  30  86 NW9       29.75R WCI  26
PERRY *        CLOUDY    32  30  93 W10       29.73F WCI  24
$$

IAZ004>006-015-016-023>025-035-036-250200-
   NORTH CENTRAL IOWA

CITY           SKY/WX    TMP DP  RH WIND       PRES   REMARKS
ALGONA *       CLOUDY    30  30 100 SW14      29.68S WCI  20
CLARION *      CLOUDY    32  32 100 W10       29.69S WCI  24
ESTHERVILLE    CLOUDY    28  27  96 SW13      29.65F WCI  17
FORT DODGE *   CLOUDY    30  25  80 W7        29.71S WCI  23
MASON CITY     CLOUDY    31  29  92 W12       29.67S WCI  22
FOREST CITY *  CLOUDY    32  30  93 SW6       29.66S WCI  26
IOWA FALLS *   CLOUDY    32  28  86 W14       29.70R WCI  22
$$

IAZ007>011-017>019-026>030-037>042-050>054-066-250200-
   NORTHEAST IOWA

CITY           SKY/WX    TMP DP  RH WIND       PRES   REMARKS
CEDAR RAPIDS   CLOUDY    34  31  88 W14       29.68R WCI  25
CHARLES CITY * CLOUDY    32  32 100 W7        29.66S WCI  26
CLINTON *      CLOUDY    36  30  80 NW13      29.66R WCI  27
DECORAH *      CLOUDY    34  30  86 VRB7G14   29.62S WCI  28
DUBUQUE        CLOUDY    34  34 100 NW12      29.62R WCI  25
MONTICELLO *   CLOUDY    36  34  93 NW14      29.65R WCI  27
OELWEIN *      CLOUDY    34  32  93 W9        29.66R WCI  26
WATERLOO       CLOUDY    33  29  85 W8        29.67R WCI  26
$$

IAZ064-065-067-068-078-250200-
   EAST CENTRAL IOWA

CITY           SKY/WX    TMP DP  RH WIND       PRES   REMARKS
DAVENPORT      CLOUDY    36  31  82 W15       29.65R WCI  27
IOWA CITY      CLOUDY    35  31  85 W10       29.71R WCI  27
MT. PLEASANT * CLOUDY    36  30  80 W12       29.72R WCI  27
MUSCATINE *    CLOUDY    37  32  81 NW17      29.70R WCI  28
QUAD CITIES    CLOUDY    37  31  78 W12       29.66R WCI  29
$$

IAZ062-063-075>077-085>089-095>099-250200-
   SOUTHEAST IOWA

CITY           SKY/WX    TMP DP  RH WIND       PRES   REMARKS
BURLINGTON     CLOUDY    37  31  78 NW12      29.70R WCI  29
FAIRFIELD *    CLOUDY    36  30  80 W13G21    29.73R WCI  27
FORT MADISON * CLOUDY    37  34  87 W15       29.73R WCI  28
KEOKUK *       CLOUDY    37  32  81 W12       29.73R WCI  30
OSKALOOSA *    CLOUDY    34  32  93 W10       29.74R WCI  26
CENTERVILLE *  CLOUDY    32  30  93 W10       29.77R WCI  24
OTTUMWA        CLOUDY    34  31  88 W8        29.73R WCI  27
WASHINGTON *   CLOUDY    36  36 100 W12       29.72R WCI  27
$$

ABBREVIATIONS USED IN REMARKS
   TC - TEMPERATURES IN CELSIUS
  WCI - WIND CHILL INDEX
   HX - HEAT INDEX
  VSB - VISIBILITY
$$



USA.gov is the U.S. government's official web portal to all federal, state and local government web resources and services.